Retour au catalogue

STARLINK-31776

ActifCommunicationsVLEO
NORAD 59603·PAYLOAD·🇺🇸 United States

Lancé Apr 28, 2024 depuis Cape Canaveral Space Force Station

Loading…

Prochains Passages (prochaines 24 heures)

TLE

FraisSource: CelesTrak SupGP

Époque: Sep 14, 2026, 22:21 UTC

1 59603C 24080C   26257.93173611  .00054630  00000+0  19785-2 0  2576
2 59603  43.0035  52.8928 0001480 275.3591  15.5035 15.27554920    19

Suivez STARLINK-31776 en temps réel avec AllMySat

Download on the App Store